Theta_e
290 289 289 288 289 288 288 286 284 282 281 280 279 278 277 277 276 277 277 277 276 276 276 276 277 277 277 277 278 278 279 279
290 290 289 289 288 288 287 284 282 281 279 278 277 276 276 275 276 276 275 275 275 275 274 274 274 275 275 275 275 275 275 276
291 289 288 287 287 286 285 282 281 279 278 276 276 275 274 275 275 274 274 274 273 273 272 272 272 273 272 272 272 272 272 272
290 288 287 287 285 285 283 281 279 277 276 275 274 274 273 273 273 273 272 272 272 271 271 270 270 270 270 270 270 270 270 270
290 288 287 286 284 283 281 279 277 275 274 274 274 273 272 272 272 271 271 270 270 270 269 269 269 269 269 269 269 270 271 271
290 288 286 285 283 281 280 277 275 274 273 273 272 271 271 270 270 270 269 269 269 268 268 269 269 269 269 270 270 270 271 272
288 286 284 283 281 279 278 275 274 273 273 271 270 270 269 269 268 267 267 267 267 267 268 268 268 270 272 272 272 271 271 271
288 285 283 282 280 278 275 274 272 272 271 269 269 268 267 266 266 266 266 266 266 267 267 267 267 270 272 273 272 272 272 272
288 287 284 282 279 277 273 272 271 271 268 268 267 266 266 265 265 265 266 266 266 266 266 267 267 270 271 272 272 272 272 272
290 287 283 280 277 273 272 271 270 268 268 267 266 264 264 262 264 264 265 265 264 266 265 265 265 269 271 272 271 271 272 273
283 281 279 276 273 271 271 270 269 269 267 266 265 262 261 263 262 264 263 264 265 265 265 265 265 269 271 272 272 271 272 273
279 276 275 273 273 272 270 269 269 267 266 264 263 261 261 261 262 262 262 263 263 264 266 267 269 269 272 274 273 272 272 272
275 274 272 273 273 270 269 268 266 265 264 262 260 262 262 259 261 261 262 263 263 265 267 269 269 270 272 274 275 275 271 270
274 271 271 272 273 270 266 265 264 263 261 260 260 261 260 260 261 264 263 264 264 266 266 267 268 270 272 274 274 273 270 271
271 270 269 271 271 267 265 264 261 261 261 261 261 261 261 263 264 263 264 264 265 266 266 266 268 269 272 272 271 271 270 270
271 270 268 269 265 264 263 261 261 262 262 262 262 262 262 262 262 264 265 266 266 266 267 266 266 269 272 272 270 269 270 266
271 268 266 265 264 262 261 262 262 262 261 261 261 261 261 261 262 262 264 266 267 268 269 268 270 272 272 272 271 270 270 263
270 267 265 263 261 260 261 263 263 262 261 260 260 260 260 260 261 261 262 263 264 265 267 269 270 270 271 271 269 268 267 261
268 265 264 262 260 260 260 262 261 261 260 260 260 259 258 258 258 257 257 257 259 262 265 266 268 268 269 269 265 262 263 262
266 264 262 261 258 258 259 259 259 259 258 258 257 257 257 257 256 257 256 257 257 258 261 260 265 266 266 266 261 260 260 260
Wind_Speed
14 17 17 19 20 22 22 21 19 16 12 10 10 8 6 6 9 8 9 9 10 10 11 12 13 14 14 13 15 16 14 13
14 16 16 17 20 20 21 21 18 15 13 11 9 8 6 6 6 7 8 9 10 10 10 12 13 14 14 15 16 18 19 19
13 15 17 19 20 21 20 19 17 15 13 11 9 8 7 6 6 6 8 8 9 10 11 12 13 13 14 16 16 18 20 20
12 16 18 18 18 19 20 19 16 15 13 11 10 8 6 6 6 6 7 8 8 9 11 12 13 14 14 15 17 18 19 20
15 16 16 16 19 20 20 18 17 15 13 11 10 8 6 5 6 6 6 8 9 9 11 12 13 14 14 15 17 19 19 21
16 15 16 17 19 19 19 18 17 15 13 11 8 6 5 5 5 5 5 6 9 10 11 12 12 10 14 17 19 21 22 21
16 15 17 20 20 19 19 18 16 14 12 10 9 7 5 4 4 5 6 7 8 10 10 12 10 19 23 23 18 20 21 20
17 18 18 21 21 22 19 17 15 14 12 11 9 7 5 4 4 5 6 7 8 9 10 13 14 21 25 27 18 19 20 21
14 14 16 17 18 17 17 16 15 14 13 11 10 8 5 5 4 5 5 6 8 10 11 12 12 22 25 28 20 18 21 20
12 13 16 18 19 18 16 15 14 13 12 11 9 8 6 3 4 4 5 6 8 9 12 13 15 23 26 25 18 18 20 19
9 11 16 18 20 21 18 16 15 13 11 9 7 6 5 4 2 3 5 7 7 11 11 15 15 22 25 24 14 18 16 20
16 15 15 15 17 19 15 14 14 13 12 10 7 6 5 4 0 3 5 6 7 10 12 14 14 16 24 27 16 15 17 15
15 14 13 17 18 15 15 13 13 13 12 9 7 5 5 4 2 1 4 6 8 10 11 10 13 19 22 29 30 30 17 17
14 17 15 16 17 18 15 14 14 13 11 9 8 6 5 4 3 1 2 4 7 9 10 11 11 11 25 27 30 29 19 15
15 16 16 13 15 16 17 15 11 12 11 9 7 6 5 4 3 2 2 4 7 8 10 11 11 11 13 13 14 19 17 20
15 16 18 16 17 17 17 16 14 12 10 10 7 6 5 4 3 2 1 5 7 8 9 10 11 13 23 22 16 14 18 17
18 19 19 17 16 15 14 15 15 13 9 8 6 4 4 4 3 2 2 8 9 13 11 9 18 25 26 28 27 26 27 11
21 20 21 19 18 15 15 14 13 12 12 9 7 5 4 3 2 3 4 6 7 11 13 17 19 22 24 26 26 24 20 10
21 21 21 19 16 15 13 12 11 11 15 9 8 7 6 5 4 3 3 5 6 9 12 17 20 19 22 25 20 13 14 11
22 23 22 21 18 15 14 14 13 11 9 9 8 6 6 5 5 4 3 1 4 6 8 12 20 16 18 21 10 12 13 12
Wind_Direction
204 204 201 198 197 195 190 186 180 181 184 184 187 198 210 228 242 259 277 283 286 291 296 297 293 289 286 284 280 278 275 273
211 203 207 199 195 191 190 183 175 176 174 179 185 190 207 231 257 268 279 283 289 299 299 295 293 291 287 283 282 278 277 274
210 203 200 201 194 191 187 180 173 171 171 181 180 188 208 226 250 268 280 289 298 306 299 293 291 293 291 290 286 284 283 282
211 209 207 201 193 188 187 180 164 166 172 177 187 190 204 235 260 270 282 294 300 297 295 298 299 297 293 291 289 288 285 283
219 217 211 197 192 186 185 175 164 169 174 180 184 186 206 225 248 265 289 301 299 295 292 292 295 297 296 294 294 289 284 281
229 214 204 195 187 184 182 171 166 169 173 177 173 180 200 235 253 279 294 289 286 293 297 298 300 295 301 298 294 290 289 284
223 201 198 192 186 179 177 170 165 168 169 164 171 177 202 224 261 280 274 283 295 296 304 306 303 304 302 300 296 296 294 290
208 203 198 189 180 181 169 156 162 163 162 168 171 179 195 216 249 264 284 299 298 302 308 306 304 304 306 308 299 297 295 292
208 203 190 178 174 162 156 156 161 164 164 169 172 177 181 210 246 269 291 300 309 311 304 299 304 308 309 306 304 297 291 290
207 190 167 167 160 154 152 153 161 169 170 170 170 166 175 196 240 279 296 311 301 298 304 304 301 304 307 310 303 292 297 290
155 157 159 160 156 156 160 158 164 166 163 157 160 160 166 175 244 318 305 297 303 310 307 298 292 292 310 309 299 297 297 289
150 159 159 157 160 156 155 164 153 145 146 149 158 166 165 165 344 303 305 311 312 311 308 296 299 303 309 313 307 302 301 309
151 153 153 158 158 153 152 138 139 140 143 148 156 176 157 153 143 253 308 317 324 316 306 313 315 314 312 318 320 318 317 308
155 146 155 164 158 148 137 144 144 143 142 155 158 168 161 161 131 95 355 333 326 314 320 319 320 312 316 323 328 326 321 307
154 155 152 160 145 131 141 143 147 139 148 150 163 159 167 148 127 93 352 338 314 328 322 320 322 323 324 332 332 328 322 331
164 159 155 153 134 142 145 152 151 149 151 151 155 165 144 114 118 96 303 305 324 326 321 329 328 328 339 344 342 332 331 342
167 157 155 149 142 147 154 151 145 147 153 150 148 145 118 106 119 106 327 347 338 326 325 334 335 336 341 346 347 340 350 342
173 159 151 151 149 154 157 152 154 148 147 140 141 138 116 98 80 55 12 356 320 341 336 352 346 347 349 348 345 337 351 353
159 154 152 149 153 157 151 146 142 137 139 138 141 138 135 138 119 86 36 347 331 321 345 2 353 350 356 355 343 334 349 352
159 152 156 152 151 147 142 140 144 143 137 133 132 135 139 140 128 124 126 238 289 313 348 355 347 346 358 360 350 336 334 342